Regional Weather Roundup
Issued by NWS Sioux Falls, SD

Home | Current Version | Previous Version | Text Only | Print | Product List | Glossary On
Versions: 1 2 3 4 5 6 7 8 9 10 11 12 13 14 15 16 17 18 19 20 21 22 23 24 25 26 27 28 29 30 31 32 33 34 35 36 37 38 39 40 41 42 43 44 45 46 47 48 49 50
000
ASUS43 KFSD 260202
RWRFSD

WEATHER ROUNDUP FOR SE SOUTH DAKOTA/SW MINNESOTA/NW IOWA
NATIONAL WEATHER SERVICE SIOUX FALLS SD
800 PM CST TUE NOV 25 2014

NOTE: "FAIR" INDICATES FEW OR NO CLOUDS BELOW 12,000 FEET WITH NO
SIGNIFICANT WEATHER AND OR OBSTRUCTIONS TO VISIBILITY.


SDZ038>040-050-052>070-260300-
SOUTHEAST SOUTH DAKOTA

CITY           SKY/WX    TMP DP  RH WIND       PRES   REMARKS
CHAMBERLAIN    NOT AVBL
HURON          CLOUDY    33  25  72 S6        29.79R WCI  28
MADISON        CLOUDY    30  23  74 SE14      29.79F WCI  20
MITCHELL       CLOUDY    34  27  75 S6        29.78F WCI  29
SIOUX FALLS    CLOUDY    35  24  64 SE16      29.82F WCI  25
WINNER         CLOUDY    38  33  82 W17       29.81R
YANKTON        CLOUDY    39  30  70 S12G17    29.83S
$$

MNZ071-072-080-081-089-090-097-098-260300-
SOUTHWEST MINNESOTA

CITY           SKY/WX    TMP DP  RH WIND       PRES   REMARKS
FAIRMONT       MOCLDY    27  12  54 SE14      29.95F WCI  15
JACKSON        MOCLDY    30  16  55 SE9       29.93S WCI  22
LUVERNE        CLOUDY    34  23  64 SE10      29.87S WCI  26
MARSHALL       CLOUDY    30  18  59 SE12      29.89F WCI  21
MONTEVIDEO     CLOUDY    27  19  74 S10       29.92F WCI  17
PIPESTONE      CLOUDY    30  23  74 S15G21    29.83F WCI  19
REDWOOD FALLS  CLOUDY    27  17  66 SE12      29.94S WCI  17
TRACY          CLOUDY    31  20  65 SE8       29.89F WCI  23
WINDOM           N/A     27  16  63 SE9       29.92S WCI  17
WORTHINGTON    CLOUDY    30  18  59 S12       29.89F WCI  21
$$

IAZ001>003-012>014-020>022-031-032-NEZ013-014-SDZ071-260300-
NORTHWEST IOWA

CITY           SKY/WX    TMP DP  RH WIND       PRES   REMARKS
DENISON        CLOUDY    34  19  55 S17G25    29.90F WCI  23
ESTHERVILLE    MOCLDY    26  15  63 S14       29.94S WCI  14
SIOUX CITY     LGT RAIN  37  26  64 SE9       29.89S
SPENCER        CLOUDY    31  17  56 SE14      29.92S WCI  21
$$

ABBREVIATIONS USED IN REMARKS
   TC - TEMPERATURE IN CELSIUS
  WCI - WIND CHILL INDEX
   HX - HEAT INDEX
  VSB - VISIBILITY



USA.gov is the U.S. government's official web portal to all federal, state and local government web resources and services.